• In Lithuania
  • List of Countries
  • For 7 days
  • Water Temperature
  • Satellite Maps
  • Weather Map
  • Weather Widgets
  • user-avatar
    Login

    Hourly Weather Dinanagar

    Today, 19 January, Friday

    Time Temperature Precipitation Wind Pressure Humidity
    00:00 +14°C° 0 mm 1 mps 740 mmHg 29%
    01:00 +13°C° 0 mm 1 mps 740 mmHg 28%
    02:00 +13°C° 0 mm 1 mps 740 mmHg 27%
    03:00 +12°C° 0 mm 1 mps 740 mmHg 27%
    04:00 +12°C° 0 mm 1 mps 740 mmHg 27%
    05:00 +12°C° 0 mm 1 mps 740 mmHg 27%
    06:00 +12°C° 0 mm 1 mps 740 mmHg 28%
    07:00 +13°C° 0 mm 1 mps 740 mmHg 29%
    08:00 +14°C° 0 mm 1 mps 740 mmHg 30%
    09:00 +16°C° 0 mm 1 mps 740 mmHg 26%
    10:00 +20°C° 0 mm 1 mps 740 mmHg 23%
    11:00 +24°C° 0 mm 2 mps 740 mmHg 19%
    12:00 +24°C° 0 mm 2 mps 740 mmHg 19%
    13:00 +25°C° 0 mm 2 mps 740 mmHg 19%
    14:00 +26°C° 0 mm 2 mps 739 mmHg 19%
    15:00 +24°C° 0 mm 2 mps 740 mmHg 24%
    16:00 +21°C° 0 mm 2 mps 740 mmHg 28%
    17:00 +19°C° 0 mm 2 mps 740 mmHg 33%
    18:00 +18°C° 0 mm 2 mps 740 mmHg 32%
    19:00 +16°C° 0 mm 2 mps 741 mmHg 32%
    20:00 +15°C° 0 mm 2 mps 741 mmHg 32%
    21:00 +14°C° 0 mm 2 mps 741 mmHg 30%
    22:00 +14°C° 0 mm 2 mps 741 mmHg 29%
    23:00 +13°C° 0 mm 1 mps 741 mmHg 27%

    Tomorrow, 20 January, Saturday

    Time Temperature Precipitation Wind Pressure Humidity
    00:00 +13°C° 0 mm 1 mps 741 mmHg 26%
    01:00 +12°C° 0 mm 1 mps 740 mmHg 25%
    02:00 +12°C° 0 mm 1 mps 740 mmHg 24%
    03:00 +12°C° 0 mm 1 mps 740 mmHg 24%
    04:00 +11°C° 0 mm 1 mps 739 mmHg 23%
    05:00 +11°C° 0 mm 1 mps 739 mmHg 23%
    06:00 +12°C° 0 mm 1 mps 739 mmHg 24%
    07:00 +12°C° 0 mm 1 mps 739 mmHg 25%
    08:00 +13°C° 0 mm 1 mps 740 mmHg 26%
    09:00 +16°C° 0 mm 1 mps 739 mmHg 23%
    10:00 +19°C° 0 mm 2 mps 739 mmHg 19%
    11:00 +23°C° 0 mm 2 mps 739 mmHg 16%
    12:00 +24°C° 0 mm 2 mps 739 mmHg 16%
    13:00 +25°C° 0 mm 2 mps 738 mmHg 16%
    14:00 +26°C° 0 mm 3 mps 737 mmHg 16%
    15:00 +24°C° 0 mm 2 mps 737 mmHg 21%
    16:00 +21°C° 0 mm 2 mps 737 mmHg 25%
    17:00 +20°C° 0 mm 1 mps 737 mmHg 30%
    18:00 +18°C° 0 mm 1 mps 737 mmHg 30%
    19:00 +16°C° 0 mm 1 mps 737 mmHg 30%
    20:00 +14°C° 0 mm 1 mps 738 mmHg 30%
    21:00 +14°C° 0 mm 1 mps 738 mmHg 30%
    22:00 +13°C° 0 mm 1 mps 738 mmHg 30%
    23:00 +13°C° 0 mm 1 mps 738 mmHg 29%

    Day after tomorrow, 21 January, Sunday

    Time Temperature Precipitation Wind Pressure Humidity
    00:00 +12°C° 0 mm 1 mps 738 mmHg 29%
    01:00 +12°C° 0 mm 1 mps 738 mmHg 29%
    02:00 +12°C° 0 mm 1 mps 738 mmHg 29%
    03:00 +11°C° 0 mm 1 mps 737 mmHg 29%
    04:00 +11°C° 0 mm 1 mps 737 mmHg 29%
    05:00 +11°C° 0 mm 1 mps 737 mmHg 29%
    06:00 +11°C° 0 mm 1 mps 737 mmHg 30%
    07:00 +12°C° 0 mm 1 mps 738 mmHg 31%
    08:00 +12°C° 0 mm 1 mps 738 mmHg 32%
    09:00 +15°C° 0 mm 1 mps 738 mmHg 28%
    10:00 +19°C° 0 mm 1 mps 738 mmHg 25%
    11:00 +22°C° 0 mm 1 mps 738 mmHg 21%
    12:00 +23°C° 0 mm 2 mps 738 mmHg 21%
    13:00 +24°C° 0 mm 2 mps 737 mmHg 20%
    14:00 +25°C° 0 mm 2 mps 736 mmHg 20%
    15:00 +23°C° 0 mm 2 mps 736 mmHg 24%
    16:00 +21°C° 0 mm 1 mps 736 mmHg 29%
    17:00 +19°C° 0 mm 1 mps 736 mmHg 33%
    18:00 +18°C° 0 mm 1 mps 737 mmHg 34%
    19:00 +15°C° 0 mm 1 mps 738 mmHg 36%
    20:00 +14°C° 0 mm 1 mps 738 mmHg 37%
    21:00 +13°C° 0 mm 1 mps 738 mmHg 37%
    22:00 +13°C° 0 mm 1 mps 738 mmHg 37%
    23:00 +13°C° 0 mm 1 mps 738 mmHg 37%

    22 January, Monday

    Time Temperature Precipitation Wind Pressure Humidity
    00:00 +12°C° 0 mm 1 mps 738 mmHg 37%
    01:00 +12°C° 0 mm 1 mps 738 mmHg 37%
    02:00 +11°C° 0 mm 1 mps 737 mmHg 37%
    03:00 +11°C° 0 mm 1 mps 737 mmHg 38%
    04:00 +11°C° 0 mm 1 mps 737 mmHg 38%
    05:00 +10°C° 0 mm 1 mps 736 mmHg 39%
    06:00 +11°C° 0 mm 1 mps 737 mmHg 39%
    07:00 +11°C° 0 mm 1 mps 737 mmHg 39%
    08:00 +12°C° 0 mm 1 mps 737 mmHg 39%
    09:00 +15°C° 0 mm 1 mps 737 mmHg 35%
    10:00 +19°C° 0 mm 1 mps 737 mmHg 30%
    11:00 +21°C° 0 mm 2 mps 737 mmHg 25%
    12:00 +23°C° 0 mm 2 mps 736 mmHg 24%
    13:00 +24°C° 0 mm 2 mps 736 mmHg 22%
    14:00 +25°C° 0 mm 2 mps 735 mmHg 21%
    15:00 +23°C° 0 mm 1 mps 735 mmHg 26%
    16:00 +21°C° 0 mm 1 mps 735 mmHg 30%
    17:00 +19°C° 0 mm 1 mps 735 mmHg 35%
    18:00 +18°C° 0 mm 1 mps 735 mmHg 36%
    19:00 +15°C° 0 mm 1 mps 736 mmHg 38%
    20:00 +14°C° 0 mm 1 mps 737 mmHg 39%
    21:00 +13°C° 0 mm 1 mps 737 mmHg 40%
    22:00 +13°C° 0 mm 1 mps 737 mmHg 40%
    23:00 +13°C° 0 mm 1 mps 737 mmHg 40%

    23 January, Tuesday

    Time Temperature Precipitation Wind Pressure Humidity
    00:00 +12°C° 0 mm 1 mps 737 mmHg 40%
    01:00 +12°C° 0 mm 1 mps 736 mmHg 40%
    02:00 +12°C° 0 mm 1 mps 736 mmHg 40%
    03:00 +12°C° 0 mm 1 mps 736 mmHg 39%
    04:00 +11°C° 0 mm 1 mps 736 mmHg 38%
    05:00 +11°C° 0 mm 1 mps 736 mmHg 37%
    06:00 +12°C° 0 mm 1 mps 736 mmHg 37%
    07:00 +12°C° 0 mm 1 mps 737 mmHg 36%
    08:00 +13°C° 0 mm 1 mps 737 mmHg 36%
    09:00 +16°C° 0 mm 1 mps 737 mmHg 31%
    10:00 +20°C° 0 mm 1 mps 737 mmHg 26%
    11:00 +23°C° 0 mm 1 mps 737 mmHg 21%
    12:00 +23°C° 0 mm 2 mps 736 mmHg 22%
    13:00 +23°C° 0 mm 2 mps 736 mmHg 23%
    14:00 +24°C° 0 mm 3 mps 735 mmHg 24%
    15:00 +21°C° 0 mm 2 mps 735 mmHg 29%
    16:00 +19°C° 0 mm 2 mps 735 mmHg 35%
    17:00 +18°C° 0 mm 1 mps 735 mmHg 41%
    18:00 +16°C° 0 mm 1 mps 736 mmHg 43%
    19:00 +15°C° 0 mm 1 mps 736 mmHg 45%
    20:00 +14°C° 0 mm 1 mps 736 mmHg 47%
    21:00 +13°C° 0 mm 1 mps 736 mmHg 47%
    22:00 +12°C° 0 mm 1 mps 736 mmHg 47%
    23:00 +12°C° 0 mm 1 mps 736 mmHg 48%

    24 January, Wednesday

    Time Temperature Precipitation Wind Pressure Humidity
    00:00 +11°C° 0 mm 1 mps 736 mmHg 47%
    01:00 +11°C° 0 mm 1 mps 736 mmHg 46%
    02:00 +11°C° 0 mm 1 mps 736 mmHg 44%
    03:00 +11°C° 0 mm 1 mps 736 mmHg 44%
    04:00 +10°C° 0 mm 1 mps 736 mmHg 44%
    05:00 +10°C° 0 mm 1 mps 736 mmHg 43%
    06:00 +11°C° 0 mm 1 mps 737 mmHg 42%
    07:00 +11°C° 0 mm 1 mps 737 mmHg 42%
    08:00 +11°C° 0 mm 0 mps 738 mmHg 41%
    09:00 +15°C° 0 mm 1 mps 738 mmHg 35%
    10:00 +19°C° 0 mm 1 mps 737 mmHg 30%
    11:00 +21°C° 0 mm 1 mps 737 mmHg 24%
    12:00 +21°C° 0 mm 2 mps 737 mmHg 23%
    13:00 +23°C° 0 mm 2 mps 736 mmHg 22%
    14:00 +24°C° 0 mm 3 mps 735 mmHg 21%
    15:00 +21°C° 0 mm 2 mps 735 mmHg 25%
    16:00 +20°C° 0 mm 2 mps 735 mmHg 29%
    17:00 +18°C° 0 mm 2 mps 735 mmHg 33%
    18:00 +18°C° 0 mm 1 mps 736 mmHg 34%
    19:00 +15°C° 0 mm 1 mps 736 mmHg 35%
    20:00 +13°C° 0 mm 1 mps 736 mmHg 36%
    21:00 +13°C° 0 mm 1 mps 737 mmHg 36%
    22:00 +12°C° 0 mm 1 mps 737 mmHg 35%
    23:00 +12°C° 0 mm 1 mps 737 mmHg 35%
    Show more